| time (UTC) | temp F | wind direction | speed knots | gust knots | rain 1hr in | rain 24hr in | rain mn in | humidity % | barometer mb |
| 20260901153540 | 59 | 210 | 0.9 | 0.9 | 0.00 | 0.00 | 0.00 | 91 | 1011.7 |
| 20260901153034 | 59 | 211 | 0.0 | 0.0 | 0.00 | 0.00 | 0.00 | 91 | 1011.9 |
| 20260901152529 | 59 | 211 | 0.0 | 1.7 | 0.00 | 0.00 | 0.00 | 91 | 1011.8 |
| 20260901152028 | 59 | 208 | 0.0 | 0.9 | 0.00 | 0.00 | 0.00 | 92 | 1011.8 |
| 20260901151524 | 59 | 210 | 0.0 | 0.9 | 0.00 | 0.00 | 0.00 | 92 | 1011.8 |
| 20260901151023 | 59 | 209 | 0.0 | 1.7 | 0.00 | 0.00 | 0.00 | 92 | 1011.7 |
| 20260901150521 | 58 | 211 | 0.0 | 0.0 | 0.00 | 0.00 | 0.00 | 92 | 1011.6 |
| 20260901150020 | 58 | 216 | 0.0 | 0.9 | 0.00 | 0.00 | 0.00 | 92 | 1011.8 |
| 20260901145513 | 58 | 209 | 0.0 | 0.9 | 0.00 | 0.00 | 0.00 | 93 | 1011.7 |
| 20260901145013 | 58 | 199 | 0.0 | 0.0 | 0.00 | 0.00 | 0.00 | 93 | 1011.7 |
| 20260901144508 | 57 | 211 | 0.0 | 1.7 | 0.00 | 0.00 | 0.00 | 93 | 1011.5 |
| 20260901144004 | 57 | 214 | 0.0 | 0.0 | 0.00 | 0.00 | 0.00 | 94 | 1011.5 |
| 20260901143459 | 57 | 208 | 0.9 | 1.7 | 0.00 | 0.00 | 0.00 | 95 | 1011.7 |
| 20260901142955 | 57 | 212 | 0.0 | 0.0 | 0.00 | 0.00 | 0.00 | 95 | 1011.5 |
| 20260901142449 | 57 | 209 | 0.0 | 0.9 | 0.00 | 0.00 | 0.00 | 95 | 1011.8 |
| 20260901141945 | 57 | 211 | 0.0 | 0.9 | 0.00 | 0.00 | 0.00 | 95 | 1011.4 |
| 20260901141439 | 57 | 211 | 0.0 | 0.0 | 0.00 | 0.00 | 0.00 | 95 | 1011.5 |
| 20260901140934 | 57 | 210 | 0.0 | 0.0 | 0.00 | 0.00 | 0.00 | 94 | 1011.4 |
| 20260901140431 | 57 | 209 | 0.0 | 0.9 | 0.00 | 0.00 | 0.00 | 94 | 1011.4 |
| 20260901135926 | 57 | 210 | 0.0 | 0.0 | 0.00 | 0.00 | 0.00 | 94 | 1011.3 |
| 20260901135421 | 57 | 211 | 0.0 | 0.0 | 0.00 | 0.00 | 0.00 | 93 | 1011.3 |
| 20260901134917 | 57 | 218 | 0.0 | 0.0 | 0.00 | 0.00 | 0.00 | 93 | 1011.1 |
| 20260901134413 | 57 | 206 | 0.0 | 0.9 | 0.00 | 0.00 | 0.00 | 93 | 1011.2 |
| 20260901133912 | 57 | 209 | 0.0 | 0.0 | 0.00 | 0.00 | 0.00 | 93 | 1011.1 |
| 20260901133406 | 57 | 194 | 0.0 | 0.9 | 0.00 | 0.00 | 0.00 | 94 | 1011.2 |
| 20260901132904 | 57 | 203 | 0.0 | 0.0 | 0.00 | 0.00 | 0.00 | 94 | 1011.0 |
| 20260901132359 | 57 | 202 | 0.0 | 0.0 | 0.00 | 0.00 | 0.00 | 94 | 1011.0 |
| 20260901131853 | 57 | 207 | 0.0 | 0.0 | 0.00 | 0.00 | 0.00 | 94 | 1010.9 |
| 20260901131352 | 57 | 207 | 0.0 | 0.0 | 0.00 | 0.00 | 0.00 | 94 | 1011.4 |
| 20260901130848 | 57 | 200 | 0.0 | 0.0 | 0.00 | 0.00 | 0.00 | 94 | 1011.1 |
| 20260901130343 | 57 | 205 | 0.0 | 0.9 | 0.00 | 0.00 | 0.00 | 95 | 1011.2 |
| 20260901125840 | 57 | 200 | 0.0 | 0.0 | 0.00 | 0.00 | 0.00 | 95 | 1011.1 |
| 20260901125339 | 57 | 209 | 0.0 | 0.9 | 0.00 | 0.00 | 0.00 | 95 | 1011.0 |
| 20260901124835 | 57 | 215 | 0.0 | 0.0 | 0.00 | 0.00 | 0.00 | 95 | 1010.9 |
| 20260901124330 | 57 | 215 | 0.0 | 0.0 | 0.00 | 0.00 | 0.00 | 95 | 1010.8 |
| 20260901123829 | 57 | 214 | 0.0 | 0.0 | 0.00 | 0.00 | 0.00 | 96 | 1011.1 |
| 20260901123325 | 57 | 212 | 0.0 | 0.9 | 0.00 | 0.00 | 0.00 | 96 | 1010.8 |
| 20260901122823 | 57 | 199 | 0.0 | 0.0 | 0.00 | 0.00 | 0.00 | 96 | 1010.9 |
| 20260901122318 | 57 | 203 | 0.0 | 0.0 | 0.00 | 0.00 | 0.00 | 96 | 1011.1 |
| 20260901121817 | 57 | 201 | 0.0 | 0.0 | 0.00 | 0.00 | 0.00 | 97 | 1010.7 |
| 20260901121312 | 57 | 210 | 0.0 | 0.0 | 0.00 | 0.00 | 0.00 | 97 | 1010.9 |
| 20260901120807 | 57 | 209 | 0.0 | 0.9 | 0.00 | 0.00 | 0.00 | 97 | 1010.7 |
| 20260901120301 | 57 | 209 | 0.0 | 0.0 | 0.00 | 0.00 | 0.00 | 97 | 1010.6 |
| 20260901115756 | 56 | 209 | 0.0 | 0.0 | 0.00 | 0.00 | 0.00 | 97 | 1010.9 |
| 20260901115252 | 56 | 208 | 0.0 | 0.0 | 0.00 | 0.00 | 0.00 | 97 | 1010.5 |
| 20260901114749 | 56 | 201 | 0.0 | 0.0 | 0.00 | 0.00 | 0.00 | 96 | 1010.5 |
| 20260901114244 | 56 | 200 | 0.0 | 0.0 | 0.00 | 0.00 | 0.00 | 96 | 1010.6 |
| 20260901113742 | 56 | 200 | 0.0 | 0.0 | 0.00 | 0.00 | 0.00 | 96 | 1010.4 |
| 20260901113237 | 56 | 200 | 0.0 | 0.0 | 0.00 | 0.00 | 0.00 | 96 | 1010.4 |
| 20260901112732 | 56 | 200 | 0.0 | 0.0 | 0.00 | 0.00 | 0.00 | 96 | 1010.4 |
| 20260901112232 | 56 | 200 | 0.0 | 0.0 | 0.00 | 0.00 | 0.00 | 96 | 1010.5 |
| 20260901111726 | 56 | 200 | 0.0 | 0.0 | 0.00 | 0.00 | 0.00 | 96 | 1010.4 |
| 20260901111220 | 56 | 200 | 0.0 | 0.0 | 0.00 | 0.00 | 0.00 | 96 | 1010.5 |
| 20260901110714 | 56 | 200 | 0.0 | 0.0 | 0.00 | 0.00 | 0.00 | 96 | 1010.6 |
| 20260901110209 | 56 | 200 | 0.0 | 0.0 | 0.00 | 0.00 | 0.00 | 96 | 1010.5 |
| 20260901105706 | 56 | 200 | 0.0 | 0.0 | 0.00 | 0.00 | 0.00 | 95 | 1010.6 |
| 20260901105205 | 56 | 200 | 0.0 | 0.0 | 0.00 | 0.00 | 0.00 | 95 | 1010.5 |
| 20260901104702 | 56 | 200 | 0.0 | 0.0 | 0.00 | 0.00 | 0.00 | 95 | 1010.5 |
| 20260901104156 | 56 | 200 | 0.0 | 0.0 | 0.00 | 0.00 | 0.00 | 95 | 1010.6 |
| 20260901103656 | 56 | 200 | 0.0 | 0.0 | 0.00 | 0.00 | 0.00 | 94 | 1010.4 |
| 20260901103151 | 56 | 200 | 0.0 | 0.0 | 0.00 | 0.00 | 0.00 | 94 | 1010.4 |
| 20260901102646 | 56 | 200 | 0.0 | 0.0 | 0.00 | 0.00 | 0.00 | 94 | 1010.6 |
| 20260901102145 | 57 | 200 | 0.0 | 0.0 | 0.00 | 0.00 | 0.00 | 94 | 1010.6 |
| 20260901101642 | 57 | 200 | 0.0 | 0.0 | 0.00 | 0.00 | 0.00 | 94 | 1010.4 |
| 20260901101140 | 57 | 200 | 0.0 | 0.0 | 0.00 | 0.00 | 0.00 | 94 | 1010.4 |
| 20260901100635 | 57 | 200 | 0.0 | 0.0 | 0.00 | 0.00 | 0.00 | 93 | 1010.4 |
| 20260901100130 | 57 | 200 | 0.0 | 0.0 | 0.00 | 0.00 | 0.00 | 93 | 1010.4 |
| 20260901095628 | 57 | 200 | 0.0 | 0.0 | 0.00 | 0.00 | 0.00 | 93 | 1010.3 |
| 20260901095126 | 57 | 200 | 0.0 | 0.0 | 0.00 | 0.00 | 0.00 | 93 | 1010.2 |
| 20260901094621 | 57 | 200 | 0.0 | 0.0 | 0.00 | 0.00 | 0.00 | 93 | 1010.2 |
| 20260901094120 | 57 | 200 | 0.0 | 0.0 | 0.00 | 0.00 | 0.00 | 93 | 1010.1 |
| 20260901093610 | 57 | 200 | 0.0 | 0.0 | 0.00 | 0.00 | 0.00 | 93 | 1010.2 |
| 20260901093109 | 57 | 200 | 0.0 | 0.0 | 0.00 | 0.00 | 0.00 | 93 | 1010.4 |
| 20260901092606 | 57 | 200 | 0.0 | 0.0 | 0.00 | 0.00 | 0.00 | 92 | 1010.1 |
| 20260901092102 | 57 | 200 | 0.0 | 0.0 | 0.00 | 0.00 | 0.00 | 92 | 1010.1 |
| 20260901091557 | 57 | 200 | 0.0 | 0.0 | 0.00 | 0.00 | 0.00 | 92 | 1010.2 |
| 20260901091052 | 57 | 200 | 0.0 | 0.0 | 0.00 | 0.00 | 0.00 | 92 | 1010.1 |
| 20260901090551 | 58 | 200 | 0.0 | 0.0 | 0.00 | 0.00 | 0.00 | 91 | 1010.2 |
| 20260901090047 | 58 | 200 | 0.0 | 0.0 | 0.00 | 0.00 | 0.00 | 91 | 1010.2 |
| 20260901085542 | 58 | 200 | 0.0 | 0.0 | 0.00 | 0.00 | 0.00 | 91 | 1010.2 |
| 20260901085038 | 58 | 202 | 0.0 | 0.0 | 0.00 | 0.00 | 0.00 | 91 | 1010.1 |
| 20260901084534 | 58 | 202 | 0.0 | 0.0 | 0.00 | 0.00 | 0.00 | 91 | 1010.3 |
| 20260901084031 | 58 | 202 | 0.0 | 0.0 | 0.00 | 0.00 | 0.00 | 91 | 1010.2 |
| 20260901083530 | 58 | 202 | 0.0 | 0.0 | 0.00 | 0.00 | 0.00 | 91 | 1010.0 |
| 20260901083028 | 58 | 202 | 0.0 | 0.0 | 0.00 | 0.00 | 0.00 | 91 | 1010.1 |
| 20260901082524 | 58 | 202 | 0.0 | 0.0 | 0.00 | 0.00 | 0.00 | 91 | 1010.2 |
| 20260901082019 | 58 | 202 | 0.0 | 0.0 | 0.00 | 0.00 | 0.00 | 91 | 1009.9 |
| 20260901081514 | 58 | 202 | 0.0 | 0.0 | 0.00 | 0.00 | 0.00 | 91 | 1010.0 |
| 20260901081009 | 58 | 202 | 0.0 | 0.0 | 0.00 | 0.00 | 0.00 | 90 | 1009.9 |
| 20260901080508 | 58 | 202 | 0.0 | 0.0 | 0.00 | 0.00 | 0.00 | 90 | 1009.9 |
| 20260901080002 | 59 | 202 | 0.0 | 0.0 | 0.00 | 0.00 | 0.00 | 89 | 1010.0 |
| 20260901075458 | 59 | 202 | 0.0 | 0.0 | 0.00 | 0.00 | 0.00 | 89 | 1010.2 |
| 20260901074956 | 59 | 202 | 0.0 | 0.0 | 0.00 | 0.00 | 0.00 | 89 | 1009.9 |
| 20260901074451 | 59 | 202 | 0.0 | 0.0 | 0.00 | 0.00 | 0.00 | 89 | 1009.8 |
| 20260901073946 | 59 | 202 | 0.0 | 0.0 | 0.00 | 0.00 | 0.00 | 89 | 1009.9 |
| 20260901073443 | 59 | 202 | 0.0 | 0.0 | 0.00 | 0.00 | 0.00 | 89 | 1010.0 |
| 20260901072943 | 59 | 202 | 0.0 | 0.0 | 0.00 | 0.00 | 0.00 | 89 | 1009.8 |
| 20260901072438 | 59 | 202 | 0.0 | 0.0 | 0.00 | 0.00 | 0.00 | 88 | 1010.0 |
| 20260901071933 | 59 | 202 | 0.0 | 0.0 | 0.00 | 0.00 | 0.00 | 88 | 1010.0 |
| 20260901071432 | 59 | 202 | 0.0 | 0.0 | 0.00 | 0.00 | 0.00 | 88 | 1010.0 |
| 20260901070932 | 59 | 202 | 0.0 | 0.0 | 0.00 | 0.00 | 0.00 | 87 | 1010.0 |
| 20260901070427 | 59 | 202 | 0.0 | 0.0 | 0.00 | 0.00 | 0.00 | 87 | 1009.8 |
| 20260901065925 | 60 | 202 | 0.0 | 0.0 | 0.00 | 0.00 | 0.00 | 86 | 1010.0 |
| 20260901065422 | 60 | 202 | 0.0 | 0.0 | 0.00 | 0.00 | 0.00 | 86 | 1009.9 |
| 20260901064916 | 60 | 202 | 0.0 | 0.0 | 0.00 | 0.00 | 0.00 | 85 | 1009.7 |
| 20260901064413 | 60 | 202 | 0.0 | 0.0 | 0.00 | 0.00 | 0.00 | 84 | 1009.9 |
| 20260901063910 | 60 | 202 | 0.0 | 0.0 | 0.00 | 0.00 | 0.00 | 83 | 1009.9 |
| 20260901063406 | 60 | 202 | 0.0 | 0.0 | 0.00 | 0.00 | 0.00 | 83 | 1009.9 |
| 20260901062902 | 60 | 202 | 0.0 | 0.0 | 0.00 | 0.00 | 0.00 | 83 | 1010.1 |
| 20260901061853 | 61 | 202 | 0.0 | 0.0 | 0.00 | 0.00 | 0.00 | 82 | 1010.0 |
| 20260901061348 | 61 | 202 | 0.0 | 0.0 | 0.00 | 0.00 | 0.00 | 82 | 1009.9 |
| 20260901060844 | 61 | 202 | 0.0 | 0.0 | 0.00 | 0.00 | 0.00 | 82 | 1010.1 |
| 20260901060340 | 62 | 202 | 0.0 | 0.0 | 0.00 | 0.00 | 0.00 | 81 | 1010.0 |
| 20260901055839 | 62 | 202 | 0.0 | 0.0 | 0.00 | 0.00 | 0.00 | 81 | 1010.2 |
| 20260901055335 | 61 | 202 | 0.0 | 0.0 | 0.00 | 0.00 | 0.00 | 82 | 1010.0 |
| 20260901054832 | 61 | 202 | 0.0 | 0.0 | 0.00 | 0.00 | 0.00 | 83 | 1010.2 |
| 20260901054329 | 62 | 202 | 0.0 | 0.0 | 0.00 | 0.00 | 0.00 | 82 | 1010.1 |
| 20260901053824 | 62 | 202 | 0.0 | 0.0 | 0.00 | 0.00 | 0.00 | 83 | 1010.4 |
| 20260901053319 | 62 | 202 | 0.0 | 0.0 | 0.00 | 0.00 | 0.00 | 82 | 1010.3 |
| 20260901052815 | 62 | 202 | 0.0 | 0.0 | 0.00 | 0.00 | 0.00 | 83 | 1010.2 |
| 20260901052310 | 62 | 202 | 0.0 | 0.0 | 0.00 | 0.00 | 0.00 | 83 | 1010.3 |
| 20260901051809 | 62 | 202 | 0.0 | 0.0 | 0.00 | 0.00 | 0.00 | 82 | 1010.2 |
| 20260901051304 | 62 | 202 | 0.0 | 0.0 | 0.00 | 0.00 | 0.00 | 82 | 1010.1 |
| 20260901050759 | 63 | 202 | 0.0 | 0.0 | 0.00 | 0.00 | 0.00 | 81 | 1010.3 |
| 20260901050255 | 63 | 202 | 0.0 | 0.0 | 0.00 | 0.00 | 0.00 | 81 | 1010.3 |
| 20260901045750 | 63 | 202 | 0.0 | 0.0 | 0.00 | 0.00 | 0.00 | 81 | 1010.2 |
| 20260901045244 | 63 | 202 | 0.0 | 0.0 | 0.00 | 0.00 | 0.00 | 81 | 1010.3 |
| 20260901044740 | 63 | 202 | 0.0 | 0.0 | 0.00 | 0.00 | 0.00 | 81 | 1010.4 |
| 20260901044236 | 63 | 202 | 0.0 | 0.0 | 0.00 | 0.00 | 0.00 | 81 | 1010.2 |
| 20260901043731 | 64 | 208 | 0.0 | 0.0 | 0.00 | 0.00 | 0.00 | 80 | 1010.5 |
| 20260901043227 | 64 | 208 | 0.0 | 0.0 | 0.00 | 0.00 | 0.00 | 80 | 1010.2 |
| 20260901042726 | 64 | 209 | 0.0 | 0.0 | 0.00 | 0.00 | 0.00 | 79 | 1010.3 |
| 20260901042221 | 64 | 203 | 0.0 | 0.0 | 0.00 | 0.00 | 0.00 | 79 | 1010.4 |
| 20260901041717 | 64 | 199 | 0.0 | 0.9 | 0.00 | 0.00 | 0.00 | 78 | 1010.2 |
| 20260901041216 | 64 | 210 | 0.0 | 0.0 | 0.00 | 0.00 | 0.00 | 79 | 1010.2 |
| 20260901040711 | 64 | 206 | 0.0 | 0.0 | 0.00 | 0.00 | 0.00 | 79 | 1010.3 |
| 20260901040210 | 64 | 208 | 0.0 | 0.0 | 0.00 | 0.00 | 0.00 | 78 | 1010.2 |
| 20260901035709 | 64 | 208 | 0.0 | 0.0 | 0.00 | 0.00 | 0.00 | 78 | 1010.0 |
| 20260901035208 | 65 | 208 | 0.0 | 0.0 | 0.00 | 0.00 | 0.00 | 77 | 1010.1 |
| 20260901034707 | 65 | 198 | 0.0 | 0.9 | 0.00 | 0.00 | 0.00 | 76 | 1010.1 |
| 20260901034203 | 65 | 210 | 0.0 | 0.0 | 0.00 | 0.00 | 0.00 | 77 | 1010.0 |
| 20260901033702 | 65 | 198 | 0.0 | 0.0 | 0.00 | 0.00 | 0.00 | 76 | 1010.1 |
| 20260901033202 | 66 | 198 | 0.0 | 0.0 | 0.00 | 0.00 | 0.00 | 75 | 1009.9 |
| 20260901032700 | 66 | 199 | 0.0 | 0.0 | 0.00 | 0.00 | 0.00 | 75 | 1010.0 |
| 20260901032155 | 66 | 199 | 0.0 | 0.0 | 0.00 | 0.00 | 0.00 | 75 | 1009.6 |
| 20260901031650 | 66 | 196 | 0.0 | 0.0 | 0.00 | 0.00 | 0.00 | 74 | 1009.8 |
| 20260901031146 | 67 | 206 | 0.0 | 0.0 | 0.00 | 0.00 | 0.00 | 74 | 1009.6 |
| 20260901030641 | 67 | 210 | 0.0 | 0.9 | 0.00 | 0.00 | 0.00 | 72 | 1009.9 |
| 20260901030135 | 67 | 196 | 0.0 | 1.7 | 0.00 | 0.00 | 0.00 | 71 | 1009.7 |
| 20260901025630 | 68 | 203 | 0.0 | 0.9 | 0.00 | 0.00 | 0.00 | 71 | 1009.6 |
| 20260901025125 | 68 | 206 | 0.0 | 0.9 | 0.00 | 0.00 | 0.00 | 70 | 1009.7 |
| 20260901024624 | 68 | 28 | 0.0 | 1.7 | 0.00 | 0.00 | 0.00 | 69 | 1009.6 |
| 20260901024123 | 68 | 216 | 0.0 | 0.0 | 0.00 | 0.00 | 0.00 | 70 | 1009.7 |
| 20260901023622 | 69 | 202 | 0.9 | 0.9 | 0.00 | 0.00 | 0.00 | 70 | 1009.5 |
| 20260901023117 | 69 | 194 | 0.0 | 0.0 | 0.00 | 0.00 | 0.00 | 69 | 1009.8 |
| 20260901022613 | 70 | 194 | 0.0 | 1.7 | 0.00 | 0.00 | 0.00 | 68 | 1009.9 |
| 20260901022108 | 70 | 193 | 0.0 | 1.7 | 0.00 | 0.00 | 0.00 | 67 | 1009.9 |
| 20260901021604 | 71 | 177 | 0.0 | 1.7 | 0.00 | 0.00 | 0.00 | 66 | 1009.7 |
| 20260901021058 | 71 | 214 | 0.0 | 0.0 | 0.00 | 0.00 | 0.00 | 67 | 1009.8 |
| 20260901020554 | 70 | 211 | 0.0 | 0.0 | 0.00 | 0.00 | 0.00 | 67 | 1009.8 |
| 20260901020049 | 70 | 217 | 0.0 | 0.0 | 0.00 | 0.00 | 0.00 | 67 | 1009.9 |
| 20260901015545 | 70 | 200 | 0.0 | 0.9 | 0.00 | 0.00 | 0.00 | 66 | 1009.8 |
| 20260901015044 | 71 | 206 | 0.0 | 0.9 | 0.00 | 0.00 | 0.00 | 66 | 1009.7 |
| 20260901014540 | 71 | 204 | 0.0 | 0.9 | 0.00 | 0.00 | 0.00 | 65 | 1009.8 |
| 20260901014036 | 71 | 215 | 0.0 | 0.0 | 0.00 | 0.00 | 0.00 | 65 | 1009.9 |
| 20260901013531 | 72 | 26 | 0.0 | 0.9 | 0.00 | 0.00 | 0.00 | 63 | 1009.6 |
| 20260901013027 | 72 | 207 | 0.0 | 0.9 | 0.00 | 0.00 | 0.00 | 63 | 1009.7 |
| 20260901012526 | 72 | 211 | 0.0 | 0.9 | 0.00 | 0.00 | 0.00 | 63 | 1009.6 |
| 20260901012022 | 73 | 213 | 0.0 | 1.7 | 0.00 | 0.00 | 0.00 | 62 | 1009.7 |
| 20260901011519 | 73 | 215 | 0.0 | 0.9 | 0.00 | 0.00 | 0.00 | 63 | 1009.7 |
| 20260901011016 | 73 | 211 | 0.0 | 0.9 | 0.00 | 0.00 | 0.00 | 62 | 1009.8 |
| 20260901010511 | 73 | 37 | 1.7 | 1.7 | 0.00 | 0.00 | 0.00 | 61 | 1009.8 |
| 20260901010011 | 74 | 187 | 0.9 | 2.6 | 0.00 | 0.00 | 0.00 | 60 | 1009.9 |
| 20260901005505 | 73 | 265 | 0.0 | 1.7 | 0.00 | 0.00 | 0.00 | 60 | 1009.9 |
| 20260901005001 | 74 | 208 | 0.9 | 1.7 | 0.00 | 0.00 | 0.00 | 60 | 1009.8 |
| 20260901004500 | 74 | 208 | 0.0 | 0.9 | 0.00 | 0.00 | 0.00 | 59 | 1009.6 |
| 20260901003955 | 74 | 21 | 3.5 | 4.3 | 0.00 | 0.00 | 0.00 | 58 | 1009.8 |
| 20260901003450 | 75 | 33 | 0.0 | 1.7 | 0.00 | 0.00 | 0.00 | 59 | 1009.8 |
| 20260901002948 | 75 | 234 | 0.0 | 0.9 | 0.00 | 0.00 | 0.00 | 58 | 1009.9 |
| 20260901002448 | 75 | 203 | 0.9 | 2.6 | 0.00 | 0.00 | 0.00 | 57 | 1009.8 |
| 20260901001942 | 76 | 239 | 0.9 | 1.7 | 0.00 | 0.00 | 0.00 | 56 | 1009.8 |
| 20260901001438 | 78 | 311 | 0.9 | 4.3 | 0.00 | 0.00 | 0.00 | 54 | 1009.9 |
| 20260901000933 | 77 | 231 | 0.0 | 4.3 | 0.00 | 0.00 | 0.00 | 54 | 1009.9 |
| 20260901000428 | 79 | 351 | 2.6 | 6.1 | 0.00 | 0.00 | 0.00 | 52 | 1009.8 |
| 20260831235926 | 79 | 194 | 0.0 | 1.7 | 0.00 | 0.00 | 0.00 | 52 | 1009.8 |
| 20260831235423 | 79 | 219 | 0.0 | 0.9 | 0.00 | 0.00 | 0.00 | 52 | 1009.9 |
| 20260831234917 | 78 | 41 | 1.7 | 2.6 | 0.00 | 0.00 | 0.00 | 51 | 1009.9 |
| 20260831234412 | 78 | 72 | 0.0 | 5.2 | 0.00 | 0.00 | 0.00 | 53 | 1010.2 |
| 20260831233907 | 79 | 55 | 2.6 | 4.3 | 0.00 | 0.00 | 0.00 | 50 | 1010.5 |
| 20260831233402 | 80 | 209 | 0.0 | 4.3 | 0.00 | 0.00 | 0.00 | 52 | 1010.4 |
| 20260831232858 | 79 | 15 | 0.9 | 1.7 | 0.00 | 0.00 | 0.00 | 51 | 1010.2 |
| 20260831232353 | 79 | 232 | 0.0 | 4.3 | 0.00 | 0.00 | 0.00 | 53 | 1010.2 |
| 20260831231849 | 79 | 256 | 0.0 | 0.9 | 0.00 | 0.00 | 0.00 | 50 | 1010.6 |
| 20260831231346 | 77 | 213 | 1.7 | 4.3 | 0.00 | 0.00 | 0.00 | 53 | 1010.4 |
| 20260831230841 | 77 | 212 | 0.0 | 1.7 | 0.00 | 0.00 | 0.00 | 53 | 1010.5 |
| 20260831230335 | 78 | 238 | 1.7 | 1.7 | 0.00 | 0.00 | 0.00 | 51 | 1010.5 |
| 20260831225830 | 77 | 215 | 0.0 | 0.9 | 0.00 | 0.00 | 0.00 | 54 | 1010.5 |
| 20260831225324 | 76 | 109 | 0.9 | 2.6 | 0.00 | 0.00 | 0.00 | 52 | 1010.7 |
| 20260831224820 | 78 | 195 | 0.0 | 2.6 | 0.00 | 0.00 | 0.00 | 52 | 1010.8 |
| 20260831224315 | 79 | 181 | 1.7 | 4.3 | 0.00 | 0.00 | 0.00 | 50 | 1010.7 |
| 20260831223809 | 80 | 261 | 1.7 | 2.6 | 0.00 | 0.00 | 0.00 | 49 | 1010.7 |
| 20260831223306 | 79 | 29 | 0.9 | 1.7 | 0.00 | 0.00 | 0.00 | 51 | 1010.8 |
| 20260831222803 | 78 | 13 | 0.9 | 5.2 | 0.00 | 0.00 | 0.00 | 51 | 1010.9 |
| 20260831222258 | 79 | 217 | 0.0 | 4.3 | 0.00 | 0.00 | 0.00 | 52 | 1010.8 |
| 20260831221753 | 78 | 7 | 1.7 | 4.3 | 0.00 | 0.00 | 0.00 | 50 | 1011.4 |
| 20260831221248 | 80 | 204 | 0.9 | 1.7 | 0.00 | 0.00 | 0.00 | 49 | 1011.1 |
| 20260831220743 | 80 | 26 | 1.7 | 1.7 | 0.00 | 0.00 | 0.00 | 48 | 1011.1 |
| 20260831220238 | 79 | 28 | 0.9 | 2.6 | 0.00 | 0.00 | 0.00 | 51 | 1011.2 |
| 20260831215738 | 79 | 355 | 1.7 | 2.6 | 0.00 | 0.00 | 0.00 | 51 | 1011.1 |
| 20260831215235 | 81 | 227 | 0.0 | 0.0 | 0.00 | 0.00 | 0.00 | 53 | 1011.2 |
| 20260831214731 | 81 | 210 | 0.0 | 2.6 | 0.00 | 0.00 | 0.00 | 52 | 1011.5 |
| 20260831214228 | 78 | 206 | 0.0 | 1.7 | 0.00 | 0.00 | 0.00 | 52 | 1011.3 |
| 20260831213723 | 77 | 221 | 0.0 | 4.3 | 0.00 | 0.00 | 0.00 | 55 | 1011.5 |
| 20260831213220 | 78 | 242 | 2.6 | 2.6 | 0.00 | 0.00 | 0.00 | 51 | 1011.6 |
| 20260831212715 | 79 | 215 | 0.0 | 1.7 | 0.00 | 0.00 | 0.00 | 54 | 1011.4 |
| 20260831212212 | 78 | 212 | 0.9 | 1.7 | 0.00 | 0.00 | 0.00 | 53 | 1011.5 |
| 20260831211710 | 77 | 211 | 0.0 | 1.7 | 0.00 | 0.00 | 0.00 | 57 | 1011.6 |
| 20260831211205 | 77 | 309 | 1.7 | 1.7 | 0.00 | 0.00 | 0.00 | 53 | 1011.4 |
| 20260831210705 | 77 | 223 | 0.0 | 2.6 | 0.00 | 0.00 | 0.00 | 54 | 1011.7 |
| 20260831210201 | 77 | 196 | 0.0 | 1.7 | 0.00 | 0.00 | 0.00 | 53 | 1011.6 |
| 20260831205700 | 77 | 269 | 1.7 | 4.3 | 0.00 | 0.00 | 0.00 | 52 | 1011.9 |
| 20260831205156 | 76 | 201 | 0.9 | 5.2 | 0.00 | 0.00 | 0.00 | 55 | 1011.8 |
| 20260831204651 | 76 | 210 | 0.0 | 1.7 | 0.00 | 0.00 | 0.00 | 55 | 1011.8 |
| 20260831204149 | 77 | 192 | 0.9 | 2.6 | 0.00 | 0.00 | 0.00 | 53 | 1012.0 |
| 20260831203644 | 75 | 231 | 0.0 | 1.7 | 0.00 | 0.00 | 0.00 | 57 | 1012.1 |
| 20260831203143 | 75 | 212 | 0.0 | 2.6 | 0.00 | 0.00 | 0.00 | 56 | 1012.0 |
| 20260831202643 | 75 | 218 | 0.0 | 1.7 | 0.00 | 0.00 | 0.00 | 58 | 1012.0 |
| 20260831202137 | 75 | 216 | 0.0 | 1.7 | 0.00 | 0.00 | 0.00 | 58 | 1012.2 |
| 20260831201636 | 75 | 208 | 0.0 | 1.7 | 0.00 | 0.00 | 0.00 | 58 | 1012.1 |
| 20260831201131 | 75 | 214 | 0.0 | 2.6 | 0.00 | 0.00 | 0.00 | 59 | 1012.1 |
| 20260831200622 | 75 | 213 | 1.7 | 2.6 | 0.00 | 0.00 | 0.00 | 56 | 1012.1 |
| 20260831200121 | 74 | 202 | 0.9 | 2.6 | 0.00 | 0.00 | 0.00 | 57 | 1012.3 |
| 20260831195617 | 74 | 75 | 2.6 | 4.3 | 0.00 | 0.00 | 0.00 | 57 | 1012.7 |
| 20260831195112 | 74 | 190 | 0.9 | 0.9 | 0.00 | 0.00 | 0.00 | 58 | 1012.6 |
| 20260831194607 | 73 | 216 | 0.0 | 1.7 | 0.00 | 0.00 | 0.00 | 62 | 1012.8 |
| 20260831194102 | 72 | 195 | 0.0 | 1.7 | 0.00 | 0.00 | 0.00 | 63 | 1012.9 |
| 20260831193557 | 72 | 177 | 0.0 | 0.9 | 0.00 | 0.00 | 0.00 | 65 | 1012.8 |
| 20260831193057 | 72 | 209 | 0.0 | 1.7 | 0.00 | 0.00 | 0.00 | 64 | 1012.9 |
| 20260831192552 | 71 | 193 | 0.9 | 0.9 | 0.00 | 0.00 | 0.00 | 66 | 1013.1 |
| 20260831192048 | 70 | 214 | 0.0 | 1.7 | 0.00 | 0.00 | 0.00 | 67 | 1013.1 |
| 20260831191543 | 71 | 214 | 0.0 | 1.7 | 0.00 | 0.00 | 0.00 | 65 | 1012.9 |
| 20260831191039 | 70 | 237 | 0.0 | 1.7 | 0.00 | 0.00 | 0.00 | 65 | 1013.0 |
| 20260831190535 | 70 | 203 | 0.0 | 0.9 | 0.00 | 0.00 | 0.00 | 69 | 1013.2 |
| 20260831190033 | 69 | 180 | 1.7 | 1.7 | 0.00 | 0.00 | 0.00 | 66 | 1013.3 |
| 20260831185529 | 69 | 66 | 0.9 | 2.6 | 0.00 | 0.00 | 0.00 | 66 | 1013.3 |
| 20260831185024 | 69 | 54 | 1.7 | 1.7 | 0.00 | 0.00 | 0.00 | 67 | 1013.5 |
| 20260831184518 | 68 | 27 | 0.9 | 1.7 | 0.00 | 0.00 | 0.00 | 67 | 1013.7 |
| 20260831184014 | 68 | 245 | 0.9 | 1.7 | 0.00 | 0.00 | 0.00 | 70 | 1013.7 |
| 20260831183513 | 66 | 223 | 0.0 | 1.7 | 0.00 | 0.00 | 0.00 | 71 | 1013.6 |
| 20260831183013 | 66 | 215 | 0.0 | 2.6 | 0.00 | 0.00 | 0.00 | 72 | 1013.7 |
| 20260831182508 | 66 | 121 | 0.9 | 1.7 | 0.00 | 0.00 | 0.00 | 73 | 1013.7 |
| 20260831182003 | 66 | 226 | 0.9 | 1.7 | 0.00 | 0.00 | 0.00 | 72 | 1013.6 |
| 20260831181458 | 65 | 208 | 0.9 | 0.9 | 0.00 | 0.00 | 0.00 | 74 | 1013.8 |
| 20260831180953 | 65 | 203 | 0.0 | 0.0 | 0.00 | 0.00 | 0.00 | 74 | 1013.9 |
| 20260831180447 | 65 | 208 | 0.0 | 1.7 | 0.00 | 0.00 | 0.00 | 74 | 1013.9 |
| 20260831175947 | 65 | 212 | 0.0 | 0.9 | 0.00 | 0.00 | 0.00 | 75 | 1014.1 |
| 20260831175443 | 64 | 210 | 0.0 | 0.9 | 0.00 | 0.00 | 0.00 | 77 | 1014.0 |
| 20260831174938 | 64 | 231 | 0.9 | 2.6 | 0.00 | 0.00 | 0.00 | 76 | 1014.1 |
| 20260831174434 | 63 | 220 | 0.0 | 1.7 | 0.00 | 0.00 | 0.00 | 77 | 1014.1 |
| 20260831173933 | 63 | 198 | 0.9 | 1.7 | 0.00 | 0.00 | 0.00 | 78 | 1014.2 |
| 20260831173432 | 62 | 263 | 0.0 | 0.0 | 0.00 | 0.00 | 0.00 | 80 | 1013.9 |
| 20260831172928 | 62 | 212 | 0.0 | 0.0 | 0.00 | 0.00 | 0.00 | 82 | 1014.1 |
| 20260831172423 | 62 | 211 | 0.9 | 1.7 | 0.00 | 0.00 | 0.00 | 81 | 1014.2 |
| 20260831171918 | 61 | 220 | 0.0 | 1.7 | 0.00 | 0.00 | 0.00 | 82 | 1014.3 |
| 20260831171414 | 61 | 210 | 0.0 | 1.7 | 0.00 | 0.00 | 0.00 | 82 | 1014.3 |
| 20260831170911 | 60 | 209 | 0.0 | 0.9 | 0.00 | 0.00 | 0.00 | 84 | 1014.1 |
| 20260831170407 | 60 | 217 | 0.0 | 0.0 | 0.00 | 0.00 | 0.00 | 85 | 1014.4 |
| 20260831165903 | 60 | 209 | 0.0 | 0.0 | 0.00 | 0.00 | 0.00 | 85 | 1014.4 |
| 20260831165359 | 60 | 270 | 0.0 | 0.9 | 0.00 | 0.00 | 0.00 | 86 | 1014.3 |
| 20260831164855 | 60 | 202 | 0.0 | 0.0 | 0.00 | 0.00 | 0.00 | 86 | 1014.3 |
| 20260831164351 | 59 | 219 | 0.9 | 1.7 | 0.00 | 0.00 | 0.00 | 86 | 1014.3 |
| 20260831163846 | 59 | 241 | 0.0 | 0.9 | 0.00 | 0.00 | 0.00 | 88 | 1014.7 |
| 20260831163342 | 58 | 206 | 0.0 | 0.0 | 0.00 | 0.00 | 0.00 | 89 | 1014.7 |
| 20260831162840 | 58 | 228 | 0.0 | 0.9 | 0.00 | 0.00 | 0.00 | 89 | 1014.7 |
| 20260831162336 | 58 | 36 | 1.7 | 1.7 | 0.00 | 0.00 | 0.00 | 90 | 1014.6 |
| 20260831161834 | 57 | 210 | 0.9 | 1.7 | 0.00 | 0.00 | 0.00 | 92 | 1014.9 |
| 20260831161331 | 57 | 201 | 0.0 | 0.0 | 0.00 | 0.00 | 0.00 | 93 | 1014.7 |
| 20260831160826 | 56 | 184 | 0.0 | 0.0 | 0.00 | 0.00 | 0.00 | 95 | 1015.0 |
| 20260831160325 | 56 | 268 | 0.9 | 1.7 | 0.00 | 0.00 | 0.00 | 95 | 1014.8 |
| 20260831155820 | 56 | 197 | 0.0 | 0.9 | 0.00 | 0.00 | 0.00 | 96 | 1015.0 |
| 20260831155315 | 55 | 210 | 0.0 | 0.0 | 0.00 | 0.00 | 0.00 | 97 | 1015.0 |
| 20260831154811 | 55 | 209 | 0.0 | 0.9 | 0.00 | 0.00 | 0.00 | 97 | 1015.0 |
| 20260831154308 | 55 | 201 | 0.0 | 0.0 | 0.00 | 0.00 | 0.00 | 98 | 1015.1 |
| 20260831153806 | 55 | 198 | 0.0 | 0.0 | 0.00 | 0.00 | 0.00 | 98 | 1015.1 |